#timestamp,LO_Frequency,Hit,StdDev 
1604894415.5,286046999.4,N
1604894435.3,286046996.5,Y
1604894455.1,286046996.9,P
1604894475.9,286046996.6,N
1604894495.7,286046996.9,N
1604894515.5,286046997.2,N
1604894535.4,286046997.0,N
1604894555.2,286046999.5,N
1604894575.1,286046996.9,N
1604894576.0,286046996.9,N
1604894595.8,286046997.0,N
1604894615.6,286046997.3,N
1604894635.5,286046997.7,N
1604894655.3,286046999.6,N
1604894675.2,286046998.3,N
1604894695.9,286046998.9,N
1604894715.7,286046996.6,Y
1604894765.6,286046998.3,E
1604894775.5,286047000.9,N
1604894795.4,286047000.5,P
1604894815.2,286047002.6,P
1604894835.0,286047002.4,N
1604894835.9,286047002.4,N
1604894855.8,286047002.2,N
1604894875.6,286047002.8,Y
1604894895.5,286046998.6,P
1604894915.3,286046998.1,N
1604894935.1,286046998.6,N
1604894955.9,286046998.9,N
1604894975.7,286046998.6,N
1604894995.6,286046996.6,N
1604895015.4,286046996.6,N
1604895035.2,286046997.0,N
1604895055.1,286046997.1,N
1604895056.0,286046997.1,N
1604895075.8,286046998.7,N
1604895095.6,286046998.4,N
1604895115.5,286046998.2,N
1604895135.3,286047000.8,N
1604895155.2,286046998.2,N
1604895175.9,286047000.4,N
1604895195.7,286047000.2,N
1604895215.6,286047000.7,N
1604895235.4,286047000.7,N
1604895255.3,286047000.8,N
1604895275.1,286047001.0,N
1604895276.0,286047001.0,N
1604895295.8,286047001.2,N
1604895315.7,286047000.9,N
1604895335.5,286047000.9,N
1604895355.3,286047001.1,N
1604895375.2,286046998.6,N
1604895395.0,286046998.2,N
1604895395.9,286046998.2,N
1604895415.8,286047000.8,N
1604895435.6,286047000.5,N
1604895455.4,286047000.0,N
1604895475.3,286047000.5,N
1604895495.1,286047000.3,N
1604895515.8,286047002.7,N
1604895535.7,286046999.9,N
1604895555.5,286047000.7,N
1604895575.4,286047000.4,N
1604895595.2,286047000.3,N
1604895615.0,286047001.1,N
1604895615.9,286047001.1,N
1604895635.8,286047000.8,N
1604895655.6,286047000.5,N
1604895675.5,286047001.1,N
1604895695.3,286047001.1,N
1604895715.1,286047000.8,N
1604895735.9,286047000.8,N
1604895755.7,286047001.1,N
1604895775.6,286046998.7,N
1604895795.4,286046998.2,N
1604895815.2,286047000.8,N
1604895835.1,286047000.7,N
1604895836.0,286047000.7,N
1604895855.8,286047000.6,N
1604895875.6,286047000.2,N
1604895895.5,286047000.1,N
1604895915.3,286047002.4,N
1604895935.2,286046999.7,N
1604895955.9,286047000.3,N
1604895975.7,286046999.9,N
1604895995.6,286047000.6,N
1604896015.4,286046999.7,N
1604896035.3,286047000.8,N
1604896055.1,286047000.1,N
1604896056.0,286047000.1,N
1604896075.8,286047000.4,N
1604896095.7,286047002.3,Y
1604896115.5,286046999.7,P
1604896135.3,286047002.5,P
1604896155.2,286047004.4,P
1604896175.0,286047001.6,N
1604896175.9,286047001.6,N
1604896195.8,286047001.5,N
1604896215.6,286047001.3,N
1604896235.4,286047004.0,Y
1604896255.3,286047000.2,P
1604896275.1,286047000.2,N
1604896295.9,286047000.2,N
1604896315.7,286047000.9,N
1604896335.5,286047002.7,Y
1604896355.4,286047000.3,P
1604896375.2,286047000.4,N
1604896395.0,286047001.9,P
1604896395.9,286047001.9,N
1604896415.8,286047002.3,Y
1604896435.6,286047000.0,P
1604896455.5,286047000.6,N
1604896475.3,286047002.6,P
1604896495.1,286047002.7,N
1604896515.9,286047001.0,N
1604896535.7,286047001.2,N
1604896555.6,286047001.2,N
1604896575.4,286046999.9,N
1604896595.2,286047000.3,N
1604896615.1,286047000.2,N
1604896616.0,286047000.2,N
1604896635.8,286046999.9,N
1604896655.6,286047000.2,N
1604896675.5,286047002.4,N
1604896695.3,286047002.4,N
1604896715.2,286047001.5,N
1604896735.9,286046999.7,N
1604896755.7,286047000.2,N
1604896775.6,286047002.0,N
1604896795.4,286047002.0,N
1604896815.2,286047001.3,N
1604896835.1,286047001.7,N
1604896836.0,286047001.7,N
1604896855.8,286047001.4,N
1604896875.7,286047002.1,N
1604896895.5,286047001.5,N
1604896915.3,286047001.4,N
1604896935.2,286047002.0,N
1604896955.0,286047004.3,Y
1604896955.9,286047004.3,P
1604896975.8,286047000.1,N
1604896995.6,286047000.2,N
1604897015.4,286047001.0,N
1604897035.3,286047000.9,N
1604897055.1,286047000.2,N
1604897075.8,286047000.5,N
1604897095.7,286046999.8,N
1604897115.5,286047000.5,N
1604897135.4,286046998.1,N
1604897155.2,286046998.5,N
1604897175.0,286047001.2,N
1604897175.9,286047001.2,N
1604897195.8,286047000.5,N
1604897215.6,286046998.1,N
1604897235.4,286047000.7,N
1604897255.3,286047000.4,N
1604897275.1,286047000.3,N
1604897295.9,286047000.5,N
1604897315.7,286047000.8,N
1604897335.5,286047000.9,N
1604897355.4,286047000.9,N
1604897375.2,286046999.8,N
1604897395.0,286047000.3,N
1604897396.0,286047000.3,N
1604897415.8,286047000.0,N
1604897435.6,286047002.7,N
1604897455.5,286047000.2,N
1604897475.3,286046999.8,N
1604897495.1,286047001.7,N
1604897515.9,286047004.3,Y
1604897535.7,286047002.2,P
1604897555.6,286047000.5,N
1604897575.4,286047000.4,N
1604897595.2,286047000.5,N
1604897615.1,286047000.3,N
1604897616.0,286047000.3,N
1604897635.8,286047000.3,N
1604897655.6,286047000.1,N
1604897675.5,286046999.7,N
1604897695.3,286047002.8,Y
1604897715.2,286047002.6,P
1604897735.0,286047002.2,N
1604897735.9,286047002.2,N
1604897755.7,286047000.5,N
1604897775.6,286047002.3,N
1604897795.4,286047000.4,N
1604897815.3,286046999.7,N
1604897835.1,286047000.2,N
1604897836.0,286047000.2,N
1604897855.8,286046999.7,N
1604897875.7,286047001.5,N
1604897895.5,286047002.2,N
1604897915.3,286047002.5,N
1604897935.2,286047002.3,N
1604897955.0,286047002.7,N
1604897955.9,286047002.7,N
1604897975.8,286047000.5,N
1604897995.6,286047000.6,N
